| time (UTC) | temp F | wind direction | speed MPH | gust MPH | rain 1hr in | rain 24hr in | rain mn in | humidity % | barometer mb |
| 20260906054457 | 53 | 341 | 13.0 | 17.0 | 0.00 | 0.00 | 0.00 | 74 | 1008.0 |
| 20260906052458 | 54 | 343 | 11.0 | 17.0 | 0.00 | 0.00 | 0.00 | 74 | 1007.8 |
| 20260906050459 | 53 | 341 | 13.0 | 21.0 | 0.00 | 0.00 | 0.00 | 76 | 1007.5 |
| 20260906042455 | 53 | 341 | 15.0 | 23.0 | 0.00 | 0.00 | 0.00 | 79 | 1007.1 |
| 20260906040458 | 53 | 344 | 15.0 | 21.0 | 0.00 | 0.00 | 0.00 | 79 | 1006.7 |
| 20260906034128 | 52 | 340 | 16.0 | 24.0 | 0.00 | 0.00 | 0.00 | 80 | 1006.4 |
| 20260906032457 | 52 | 337 | 17.0 | 24.0 | 0.00 | 0.00 | 0.00 | 80 | 1006.1 |
| 20260906030458 | 52 | 330 | 16.0 | 23.0 | 0.00 | 0.00 | 0.00 | 80 | 1006.0 |
| 20260906024458 | 52 | 332 | 16.0 | 25.0 | 0.00 | 0.00 | 0.00 | 81 | 1005.8 |
| 20260906022458 | 52 | 326 | 16.0 | 24.0 | 0.00 | 0.00 | 0.00 | 81 | 1005.6 |
| 20260906020458 | 53 | 342 | 17.0 | 26.0 | 0.00 | 0.00 | 0.00 | 79 | 1005.4 |
| 20260906014459 | 52 | 344 | 17.0 | 24.0 | 0.00 | 0.00 | 0.00 | 79 | 1005.1 |
| 20260906012457 | 53 | 343 | 19.0 | 26.0 | 0.00 | 0.00 | 0.00 | 77 | 1004.9 |
| 20260906010458 | 53 | 346 | 19.0 | 28.0 | 0.00 | 0.00 | 0.00 | 77 | 1004.7 |
| 20260906004459 | 53 | 348 | 17.0 | 25.0 | 0.00 | 0.00 | 0.00 | 77 | 1004.4 |
| 20260906002457 | 53 | 337 | 21.0 | 28.0 | 0.00 | 0.00 | 0.00 | 79 | 1004.1 |
| 20260906000127 | 53 | 341 | 17.0 | 25.0 | 0.00 | 0.00 | 0.00 | 79 | 1003.9 |
| 20260905234456 | 54 | 341 | 19.0 | 26.0 | 0.00 | 0.00 | 0.00 | 79 | 1003.7 |
| 20260905232456 | 55 | 343 | 19.0 | 28.0 | 0.00 | 0.00 | 0.00 | 74 | 1003.3 |
| 20260905230456 | 55 | 347 | 15.0 | 22.0 | 0.00 | 0.00 | 0.00 | 80 | 1003.0 |
| 20260905224128 | 56 | 348 | 17.0 | 24.0 | 0.00 | 0.00 | 0.00 | 79 | 1002.7 |
| 20260905222456 | 56 | 348 | 17.0 | 24.0 | 0.00 | 0.00 | 0.00 | 78 | 1002.5 |
| 20260905220457 | 56 | 352 | 18.0 | 26.0 | 0.00 | 0.00 | 0.00 | 77 | 1002.3 |
| 20260905214457 | 58 | 348 | 16.0 | 24.0 | 0.00 | 0.00 | 0.00 | 79 | 1002.0 |
| 20260905212457 | 58 | 334 | 15.0 | 21.0 | 0.00 | 0.00 | 0.00 | 81 | 1001.8 |
| 20260905210126 | 58 | 324 | 13.0 | 19.0 | 0.00 | 0.00 | 0.00 | 83 | 1001.5 |
| 20260905204456 | 58 | 317 | 14.0 | 19.0 | 0.00 | 0.00 | 0.00 | 83 | 1001.3 |
| 20260905202456 | 58 | 314 | 12.0 | 18.0 | 0.00 | 0.00 | 0.00 | 82 | 1001.1 |
| 20260905200457 | 58 | 316 | 13.0 | 20.0 | 0.00 | 0.00 | 0.00 | 81 | 1000.8 |
| 20260905194126 | 58 | 313 | 13.0 | 19.0 | 0.00 | 0.00 | 0.00 | 82 | 1000.8 |
| 20260905192127 | 59 | 305 | 13.0 | 19.0 | 0.00 | 0.00 | 0.00 | 81 | 1000.6 |
| 20260905190126 | 59 | 305 | 14.0 | 18.0 | 0.00 | 0.00 | 0.00 | 80 | 1000.6 |
| 20260905184457 | 59 | 301 | 14.0 | 19.0 | 0.00 | 0.00 | 0.00 | 77 | 1000.5 |
| 20260905182455 | 59 | 300 | 14.0 | 19.0 | 0.00 | 0.00 | 0.00 | 76 | 1000.3 |
| 20260905180453 | 60 | 301 | 14.0 | 20.0 | 0.00 | 0.00 | 0.00 | 75 | 1000.2 |
| 20260905174125 | 60 | 302 | 14.0 | 20.0 | 0.00 | 0.00 | 0.00 | 75 | 1000.0 |
| 20260905172454 | 60 | 298 | 13.0 | 18.0 | 0.00 | 0.00 | 0.00 | 76 | 999.8 |
| 20260905170455 | 60 | 298 | 12.0 | 18.0 | 0.00 | 0.00 | 0.00 | 73 | 999.6 |
| 20260905164456 | 60 | 302 | 14.0 | 19.0 | 0.00 | 0.00 | 0.00 | 71 | 999.5 |
| 20260905162453 | 60 | 314 | 14.0 | 21.0 | 0.00 | 0.00 | 0.00 | 71 | 999.3 |
| 20260905160455 | 61 | 317 | 13.0 | 19.0 | 0.00 | 0.00 | 0.00 | 71 | 999.1 |
| 20260905154454 | 62 | 307 | 11.0 | 18.0 | 0.00 | 0.00 | 0.00 | 66 | 998.8 |
| 20260905152455 | 62 | 304 | 12.0 | 17.0 | 0.00 | 0.00 | 0.00 | 65 | 998.7 |
| 20260905150455 | 62 | 304 | 13.0 | 20.0 | 0.00 | 0.00 | 0.00 | 64 | 998.6 |
| 20260905144455 | 63 | 299 | 13.0 | 19.0 | 0.00 | 0.00 | 0.00 | 59 | 998.4 |
| 20260905142455 | 62 | 298 | 14.0 | 19.0 | 0.00 | 0.00 | 0.00 | 56 | 998.3 |
| 20260905140455 | 63 | 298 | 13.0 | 20.0 | 0.00 | 0.00 | 0.00 | 61 | 998.1 |
| 20260905134454 | 63 | 297 | 13.0 | 17.0 | 0.00 | 0.00 | 0.00 | 61 | 998.0 |
| 20260905132452 | 64 | 299 | 13.0 | 18.0 | 0.00 | 0.00 | 0.00 | 55 | 997.8 |
| 20260905130459 | 63 | 292 | 11.0 | 17.0 | 0.00 | 0.00 | 0.00 | 57 | 997.7 |
| 20260905124454 | 64 | 299 | 12.0 | 18.0 | 0.00 | 0.00 | 0.00 | 57 | 997.5 |
| 20260905122454 | 64 | 311 | 11.0 | 16.0 | 0.00 | 0.00 | 0.00 | 59 | 997.5 |
| 20260905120454 | 63 | 309 | 8.0 | 15.0 | 0.00 | 0.00 | 0.00 | 57 | 997.3 |
| 20260905114455 | 63 | 289 | 8.0 | 12.0 | 0.00 | 0.00 | 0.00 | 62 | 997.2 |
| 20260905112456 | 62 | 292 | 7.0 | 12.0 | 0.00 | 0.00 | 0.00 | 64 | 997.1 |
| 20260905110453 | 62 | 295 | 8.0 | 11.0 | 0.00 | 0.00 | 0.00 | 64 | 996.9 |
| 20260905104455 | 62 | 298 | 7.0 | 10.0 | 0.00 | 0.00 | 0.00 | 65 | 996.7 |
| 20260905090455 | 58 | 303 | 7.0 | 10.0 | 0.00 | 0.00 | 0.00 | 74 | 995.9 |
| 20260905084455 | 58 | 322 | 6.0 | 11.0 | 0.00 | 0.00 | 0.00 | 74 | 995.9 |
| 20260905080123 | 58 | 336 | 6.0 | 11.0 | 0.00 | 0.00 | 0.00 | 76 | 995.6 |
| 20260905074452 | 58 | 330 | 6.0 | 11.0 | 0.00 | 0.00 | 0.00 | 74 | 995.4 |
| 20260905072452 | 58 | 329 | 8.0 | 10.0 | 0.00 | 0.00 | 0.00 | 77 | 995.3 |
| 20260905070455 | 57 | 348 | 6.0 | 9.0 | 0.00 | 0.00 | 0.00 | 83 | 995.2 |
| 20260905062123 | 57 | 354 | 7.0 | 9.0 | 0.00 | 0.00 | 0.00 | 79 | 994.8 |
| 20260905060453 | 57 | 343 | 7.0 | 9.0 | 0.00 | 0.00 | 0.00 | 74 | 994.7 |